Year,Month,Day,Hour,Minute,Value (Times are PST for windgust in km/hr)
2006,12,15,00,00,6.40
2006,12,15,00,01,8.10
2006,12,15,00,02,8.10
2006,12,15,00,03,8.10
2006,12,15,00,04,4.80
2006,12,15,00,05,6.40
2006,12,15,00,06,20.90
2006,12,15,00,07,20.90
2006,12,15,00,08,24.20
2006,12,15,00,09,16.10
2006,12,15,00,10,14.50
2006,12,15,00,11,16.10
2006,12,15,00,12,9.60
2006,12,15,00,13,9.60
2006,12,15,00,14,14.50
2006,12,15,00,15,19.30
2006,12,15,00,16,20.90
2006,12,15,00,17,9.60
2006,12,15,00,18,17.70
2006,12,15,00,19,17.70
2006,12,15,00,20,24.20
2006,12,15,00,21,27.40
2006,12,15,00,22,22.50
2006,12,15,00,23,19.30
2006,12,15,00,24,19.30
2006,12,15,00,25,17.70
2006,12,15,00,26,19.30
2006,12,15,00,27,20.90
2006,12,15,00,28,32.20
2006,12,15,00,29,27.40
2006,12,15,00,30,11.30
2006,12,15,00,31,24.20
2006,12,15,00,32,17.70
2006,12,15,00,33,27.40
2006,12,15,00,34,17.70
2006,12,15,00,35,24.20
2006,12,15,00,36,25.70
2006,12,15,00,37,29.00
2006,12,15,00,38,25.70
2006,12,15,00,39,29.00
2006,12,15,00,40,11.30
2006,12,15,00,41,19.30
2006,12,15,00,42,27.40
2006,12,15,00,43,29.00
2006,12,15,00,44,29.00
2006,12,15,00,45,25.70
2006,12,15,00,46,29.00
2006,12,15,00,47,25.70
2006,12,15,00,48,29.00
2006,12,15,00,49,25.70
2006,12,15,00,50,30.60
2006,12,15,00,51,37.00
2006,12,15,00,52,22.50
2006,12,15,00,53,41.80
2006,12,15,00,54,37.00
2006,12,15,00,55,27.40
2006,12,15,00,56,40.20
2006,12,15,00,57,30.60
2006,12,15,00,58,33.80
2006,12,15,00,59,35.40
2006,12,15,01,00,29.00
2006,12,15,01,01,27.40
2006,12,15,01,02,32.20
2006,12,15,01,03,37.00
2006,12,15,01,04,40.20
2006,12,15,01,05,40.20
2006,12,15,01,06,25.70
2006,12,15,01,07,25.70
2006,12,15,01,08,35.40
2006,12,15,01,09,32.20
2006,12,15,01,10,37.00
2006,12,15,01,11,27.40
2006,12,15,01,12,35.40
2006,12,15,01,13,33.80
2006,12,15,01,14,29.00
2006,12,15,01,15,32.20
2006,12,15,01,16,45.10
2006,12,15,01,17,49.90
2006,12,15,01,18,30.60
2006,12,15,01,19,30.60
2006,12,15,01,20,35.40
2006,12,15,01,21,24.20
2006,12,15,01,22,22.50
2006,12,15,01,23,30.60
2006,12,15,01,24,40.20
2006,12,15,01,25,32.20
2006,12,15,01,26,33.80
2006,12,15,01,27,32.20
2006,12,15,01,28,37.00
2006,12,15,01,29,38.60
2006,12,15,01,30,24.20
2006,12,15,01,31,24.20
2006,12,15,01,32,27.40
2006,12,15,01,33,27.40
2006,12,15,01,34,29.00
2006,12,15,01,35,29.00
2006,12,15,01,36,29.00
2006,12,15,01,37,35.40
2006,12,15,01,38,27.40
2006,12,15,01,39,19.30
2006,12,15,01,40,24.20
2006,12,15,01,41,32.20
2006,12,15,01,42,45.10
2006,12,15,01,43,32.20
2006,12,15,01,44,33.80
2006,12,15,01,45,41.80
2006,12,15,01,46,43.50
2006,12,15,01,47,30.60
2006,12,15,01,48,40.20
2006,12,15,01,49,32.20
2006,12,15,01,50,27.40
2006,12,15,01,51,33.80
2006,12,15,01,52,25.70
2006,12,15,01,53,30.60
2006,12,15,01,54,30.60
2006,12,15,01,55,29.00
2006,12,15,01,56,27.40
2006,12,15,01,57,32.20
2006,12,15,01,58,32.20
2006,12,15,01,59,38.60
2006,12,15,02,00,37.00
2006,12,15,02,01,40.20
2006,12,15,02,02,29.00
2006,12,15,02,03,41.80
2006,12,15,02,04,22.50
2006,12,15,02,05,25.70
2006,12,15,02,06,22.50
2006,12,15,02,07,27.40
2006,12,15,02,08,27.40
2006,12,15,02,09,29.00
2006,12,15,02,10,30.60
2006,12,15,02,11,43.50
2006,12,15,02,12,33.80
2006,12,15,02,13,46.70
2006,12,15,02,14,38.60
2006,12,15,02,15,27.40
2006,12,15,02,16,29.00
2006,12,15,02,17,30.60
2006,12,15,02,18,40.20
2006,12,15,02,19,37.00
2006,12,15,02,20,25.70
2006,12,15,02,21,24.20
2006,12,15,02,22,37.00
2006,12,15,02,23,27.40
2006,12,15,02,24,27.40
2006,12,15,02,25,24.20
2006,12,15,02,26,17.70
2006,12,15,02,27,35.40
2006,12,15,02,28,32.20
2006,12,15,02,29,38.60
2006,12,15,02,30,38.60
2006,12,15,02,31,22.50
2006,12,15,02,32,27.40
2006,12,15,02,33,22.50
2006,12,15,02,34,24.20
2006,12,15,02,35,32.20
2006,12,15,02,36,37.00
2006,12,15,02,37,43.50
2006,12,15,02,38,46.70
2006,12,15,02,39,48.30
2006,12,15,02,40,29.00
2006,12,15,02,41,35.40
2006,12,15,02,42,27.40
2006,12,15,02,43,27.40
2006,12,15,02,44,41.80
2006,12,15,02,45,29.00
2006,12,15,02,46,24.20
2006,12,15,02,47,45.10
2006,12,15,02,48,35.40
2006,12,15,02,49,49.90
2006,12,15,02,50,54.70
2006,12,15,02,51,46.70
2006,12,15,02,52,32.20
2006,12,15,02,53,45.10
2006,12,15,02,54,48.30
2006,12,15,02,55,49.90
2006,12,15,02,56,25.70
2006,12,15,02,57,48.30
2006,12,15,02,58,43.50
2006,12,15,02,59,38.60
2006,12,15,03,00,29.00
2006,12,15,03,01,45.10
2006,12,15,03,02,41.80
2006,12,15,03,03,38.60
2006,12,15,03,04,40.20
2006,12,15,03,05,43.50
2006,12,15,03,06,41.80
2006,12,15,03,07,49.90
2006,12,15,03,08,37.00
2006,12,15,03,09,46.70
2006,12,15,03,10,46.70
2006,12,15,03,11,54.70
2006,12,15,03,12,61.20
2006,12,15,03,13,67.60
2006,12,15,03,14,57.90
2006,12,15,03,15,64.40
2006,12,15,03,16,66.00
2006,12,15,03,17,64.40
2006,12,15,03,18,67.60
2006,12,15,03,19,48.30
2006,12,15,03,20,45.10
2006,12,15,03,21,51.50
2006,12,15,03,22,49.90
2006,12,15,03,23,54.70
2006,12,15,03,24,74.00
2006,12,15,03,25,49.90
2006,12,15,03,26,75.60
2006,12,15,03,27,70.80
2006,12,15,03,28,51.50
2006,12,15,03,29,32.20
2006,12,15,03,30,56.30
2006,12,15,03,31,54.70
2006,12,15,03,32,59.50
2006,12,15,03,33,69.20
2006,12,15,03,34,49.90
2006,12,15,03,35,56.30
2006,12,15,03,36,49.90
2006,12,15,03,37,49.90
2006,12,15,03,38,61.20
2006,12,15,03,39,57.90
2006,12,15,03,40,43.50
2006,12,15,03,41,59.50
2006,12,15,03,42,49.90
2006,12,15,03,43,57.90
2006,12,15,03,44,48.30
2006,12,15,03,45,25.70
2006,12,15,03,46,35.40
2006,12,15,03,47,51.50
2006,12,15,03,48,33.80
2006,12,15,03,49,51.50
2006,12,15,03,50,53.10
2006,12,15,03,51,57.90
2006,12,15,03,52,40.20
2006,12,15,03,53,29.00
2006,12,15,03,54,45.10
2006,12,15,03,55,27.40
2006,12,15,03,56,30.60
2006,12,15,03,57,25.70
2006,12,15,03,58,43.50
2006,12,15,03,59,37.00
2006,12,15,04,00,37.00
2006,12,15,04,01,33.80
2006,12,15,04,02,46.70
2006,12,15,04,03,43.50
2006,12,15,04,04,54.70
2006,12,15,04,05,53.10
2006,12,15,04,06,40.20
2006,12,15,04,07,30.60
2006,12,15,04,08,48.30
2006,12,15,04,09,35.40
2006,12,15,04,10,37.00
2006,12,15,04,11,29.00
2006,12,15,04,12,30.60
2006,12,15,04,13,27.40
2006,12,15,04,14,38.60
2006,12,15,04,15,30.60
2006,12,15,04,16,24.20
2006,12,15,04,17,33.80
2006,12,15,04,18,29.00
2006,12,15,04,19,53.10
2006,12,15,04,20,43.50
2006,12,15,04,21,41.80
2006,12,15,04,22,37.00
2006,12,15,04,23,35.40
2006,12,15,04,24,32.20
2006,12,15,04,25,37.00
2006,12,15,04,26,37.00
2006,12,15,04,27,33.80
2006,12,15,04,28,25.70
2006,12,15,04,29,35.40
2006,12,15,04,30,33.80
2006,12,15,04,31,38.60
2006,12,15,04,32,30.60
2006,12,15,04,33,41.80
2006,12,15,04,34,41.80
2006,12,15,04,35,37.00
2006,12,15,04,36,35.40
2006,12,15,04,37,30.60
2006,12,15,04,38,29.00
2006,12,15,04,39,25.70
2006,12,15,04,40,40.20
2006,12,15,04,41,35.40
2006,12,15,04,42,37.00
2006,12,15,04,43,43.50
2006,12,15,04,44,41.80
2006,12,15,04,45,32.20
2006,12,15,04,46,38.60
2006,12,15,04,47,27.40
2006,12,15,04,48,32.20
2006,12,15,04,49,27.40
2006,12,15,04,50,17.70
2006,12,15,04,51,35.40
2006,12,15,04,52,22.50
2006,12,15,04,53,35.40
2006,12,15,04,54,24.20
2006,12,15,04,55,22.50
2006,12,15,04,56,25.70
2006,12,15,04,57,20.90
2006,12,15,04,58,37.00
2006,12,15,04,59,37.00
2006,12,15,05,00,37.00
2006,12,15,05,01,40.20
2006,12,15,05,02,49.90
2006,12,15,05,03,48.30
2006,12,15,05,04,25.70
2006,12,15,05,05,29.00
2006,12,15,05,06,33.80
2006,12,15,05,07,27.40
2006,12,15,05,08,33.80
2006,12,15,05,09,22.50
2006,12,15,05,10,35.40
2006,12,15,05,11,32.20
2006,12,15,05,12,37.00
2006,12,15,05,13,25.70
2006,12,15,05,14,33.80
2006,12,15,05,15,33.80
2006,12,15,05,16,20.90
2006,12,15,05,17,24.20
2006,12,15,05,18,20.90
2006,12,15,05,19,20.90
2006,12,15,05,20,25.70
2006,12,15,05,21,45.10
2006,12,15,05,22,41.80
2006,12,15,05,23,32.20
2006,12,15,05,24,33.80
2006,12,15,05,25,33.80
2006,12,15,05,26,29.00
2006,12,15,05,27,30.60
2006,12,15,05,28,25.70
2006,12,15,05,29,24.20
2006,12,15,05,30,37.00
2006,12,15,05,31,33.80
2006,12,15,05,32,22.50
2006,12,15,05,33,20.90
2006,12,15,05,34,29.00
2006,12,15,05,35,32.20
2006,12,15,05,36,30.60
2006,12,15,05,37,29.00
2006,12,15,05,38,22.50
2006,12,15,05,39,40.20
2006,12,15,05,40,30.60
2006,12,15,05,41,22.50
2006,12,15,05,42,30.60
2006,12,15,05,43,25.70
2006,12,15,05,44,19.30
2006,12,15,05,45,20.90
2006,12,15,05,46,29.00
2006,12,15,05,47,33.80
2006,12,15,05,48,24.20
2006,12,15,05,49,20.90
2006,12,15,05,50,25.70
2006,12,15,05,51,22.50
2006,12,15,05,52,35.40
2006,12,15,05,53,35.40
2006,12,15,05,54,25.70
2006,12,15,05,55,29.00
2006,12,15,05,56,24.20
2006,12,15,05,57,35.40
2006,12,15,05,58,29.00
2006,12,15,05,59,17.70
2006,12,15,06,00,22.50
2006,12,15,06,01,22.50
2006,12,15,06,02,17.70
2006,12,15,06,03,17.70
2006,12,15,06,04,22.50
2006,12,15,06,05,20.90
2006,12,15,06,06,35.40
2006,12,15,06,07,25.70
2006,12,15,06,08,24.20
2006,12,15,06,09,24.20
2006,12,15,06,10,16.10
2006,12,15,06,11,19.30
2006,12,15,06,12,14.50
2006,12,15,06,13,24.20
2006,12,15,06,14,14.50
2006,12,15,06,15,17.70
2006,12,15,06,16,20.90
2006,12,15,06,17,16.10
2006,12,15,06,18,25.70
2006,12,15,06,19,33.80
2006,12,15,06,20,25.70
2006,12,15,06,21,40.20
2006,12,15,06,22,24.20
2006,12,15,06,23,24.20
2006,12,15,06,24,32.20
2006,12,15,06,25,32.20
2006,12,15,06,26,37.00
2006,12,15,06,27,25.70
2006,12,15,06,28,22.50
2006,12,15,06,29,17.70
2006,12,15,06,30,27.40
2006,12,15,06,31,17.70
2006,12,15,06,32,25.70
2006,12,15,06,33,27.40
2006,12,15,06,34,24.20
2006,12,15,06,35,22.50
2006,12,15,06,36,11.30
2006,12,15,06,37,9.60
2006,12,15,06,38,11.30
2006,12,15,06,39,17.70
2006,12,15,06,40,9.60
2006,12,15,06,41,11.30
2006,12,15,06,42,16.10
2006,12,15,06,43,8.10
2006,12,15,06,44,25.70
2006,12,15,06,45,22.50
2006,12,15,06,46,9.60
2006,12,15,06,47,16.10
2006,12,15,06,48,14.50
2006,12,15,06,49,6.40
2006,12,15,06,50,14.50
2006,12,15,06,51,22.50
2006,12,15,06,52,9.60
2006,12,15,06,53,19.30
2006,12,15,06,54,16.10
2006,12,15,06,55,17.70
2006,12,15,06,56,16.10
2006,12,15,06,57,11.30
2006,12,15,06,58,11.30
2006,12,15,06,59,12.90
2006,12,15,07,00,14.50
2006,12,15,07,01,8.10
2006,12,15,07,02,9.60
2006,12,15,07,03,8.10
2006,12,15,07,04,9.60
2006,12,15,07,05,4.80
2006,12,15,07,06,6.40
2006,12,15,07,07,9.60
2006,12,15,07,08,6.40
2006,12,15,07,09,4.80
2006,12,15,07,10,4.80
2006,12,15,07,11,1.60
2006,12,15,07,12,6.40
2006,12,15,07,13,4.80
2006,12,15,07,14,9.60
2006,12,15,07,15,8.10
2006,12,15,07,16,14.50
2006,12,15,07,17,8.10
2006,12,15,07,18,6.40
2006,12,15,07,19,9.60
2006,12,15,07,20,8.10
2006,12,15,07,21,9.60
2006,12,15,07,22,9.60
2006,12,15,07,23,6.40
2006,12,15,07,24,4.80
2006,12,15,07,25,16.10
2006,12,15,07,26,8.10
2006,12,15,07,27,6.40
2006,12,15,07,28,4.80
2006,12,15,07,29,3.20
2006,12,15,07,30,3.20
2006,12,15,07,31,6.40
2006,12,15,07,32,14.50
2006,12,15,07,33,12.90
2006,12,15,07,34,9.60
2006,12,15,07,35,9.60
2006,12,15,07,36,12.90
2006,12,15,07,37,14.50
2006,12,15,07,38,9.60
2006,12,15,07,39,6.40
2006,12,15,07,40,9.60
2006,12,15,07,41,6.40
2006,12,15,07,42,6.40
2006,12,15,07,43,11.30
2006,12,15,07,44,9.60
2006,12,15,07,45,8.10
2006,12,15,07,46,6.40
2006,12,15,07,47,9.60
2006,12,15,07,48,16.10
2006,12,15,07,49,20.90
2006,12,15,07,50,8.10
2006,12,15,07,51,8.10
2006,12,15,07,52,6.40
2006,12,15,07,53,8.10
2006,12,15,07,54,14.50
2006,12,15,07,55,8.10
2006,12,15,07,56,14.50
2006,12,15,07,57,4.80
2006,12,15,07,58,6.40
2006,12,15,07,59,4.80
2006,12,15,08,00,6.40
2006,12,15,08,01,24.20
2006,12,15,08,02,16.10
2006,12,15,08,03,9.60
2006,12,15,08,04,20.90
2006,12,15,08,05,11.30
2006,12,15,08,06,4.80
2006,12,15,08,07,14.50
2006,12,15,08,08,6.40
2006,12,15,08,09,11.30
2006,12,15,08,10,9.60
2006,12,15,08,11,16.10
2006,12,15,08,12,11.30
2006,12,15,08,13,6.40
2006,12,15,08,14,3.20
2006,12,15,08,15,8.10
2006,12,15,08,16,4.80
2006,12,15,08,17,6.40
2006,12,15,08,18,6.40
2006,12,15,08,19,1.60
2006,12,15,08,20,6.40
2006,12,15,08,21,8.10
2006,12,15,08,22,8.10
2006,12,15,08,23,9.60
2006,12,15,08,24,4.80
2006,12,15,08,25,4.80
2006,12,15,08,26,16.10
2006,12,15,08,27,14.50
2006,12,15,08,28,8.10
2006,12,15,08,29,9.60
2006,12,15,08,30,6.40
2006,12,15,08,31,8.10
2006,12,15,08,32,4.80
2006,12,15,08,33,8.10
2006,12,15,08,34,9.60
2006,12,15,08,35,6.40
2006,12,15,08,36,9.60
2006,12,15,08,37,8.10
2006,12,15,08,38,4.80
2006,12,15,08,39,17.70
2006,12,15,08,40,14.50
2006,12,15,08,41,12.90
2006,12,15,08,42,8.10
2006,12,15,08,43,11.30
2006,12,15,08,44,12.90
2006,12,15,08,45,8.10
2006,12,15,08,46,6.40
2006,12,15,08,47,6.40
2006,12,15,08,48,11.30
2006,12,15,08,49,9.60
2006,12,15,08,50,9.60
2006,12,15,08,51,9.60
2006,12,15,08,52,9.60
2006,12,15,08,53,9.60
2006,12,15,08,54,9.60
2006,12,15,08,55,6.40
2006,12,15,08,56,12.90
2006,12,15,08,57,16.10
2006,12,15,08,58,8.10
2006,12,15,08,59,14.50
2006,12,15,09,00,20.90
2006,12,15,09,01,12.90
2006,12,15,09,02,20.90
2006,12,15,09,03,20.90
2006,12,15,09,04,20.90
2006,12,15,09,05,14.50
2006,12,15,09,06,19.30
2006,12,15,09,07,16.10
2006,12,15,09,08,17.70
2006,12,15,09,09,6.40
2006,12,15,09,10,8.10
2006,12,15,09,11,17.70
2006,12,15,09,12,19.30
2006,12,15,09,13,27.40
2006,12,15,09,14,20.90
2006,12,15,09,15,22.50
2006,12,15,09,16,11.30
2006,12,15,09,17,9.60
2006,12,15,09,18,8.10
2006,12,15,09,19,16.10
2006,12,15,09,20,9.60
2006,12,15,09,21,3.20
2006,12,15,09,22,4.80
2006,12,15,09,23,17.70
2006,12,15,09,24,11.30
2006,12,15,09,25,8.10
2006,12,15,09,26,16.10
2006,12,15,09,27,16.10
2006,12,15,09,28,14.50
2006,12,15,09,29,12.90
2006,12,15,09,30,11.30
2006,12,15,09,31,20.90
2006,12,15,09,32,11.30
2006,12,15,09,33,17.70
2006,12,15,09,34,8.10
2006,12,15,09,35,16.10
2006,12,15,09,36,16.10
2006,12,15,09,37,11.30
2006,12,15,09,38,35.40
2006,12,15,09,39,30.60
2006,12,15,09,40,16.10
2006,12,15,09,41,20.90
2006,12,15,09,42,24.20
2006,12,15,09,43,16.10
2006,12,15,09,44,9.60
2006,12,15,09,45,11.30
2006,12,15,09,46,9.60
2006,12,15,09,47,6.40
2006,12,15,09,48,3.20
2006,12,15,09,49,22.50
2006,12,15,09,50,17.70
2006,12,15,09,51,8.10
2006,12,15,09,52,4.80
2006,12,15,09,53,14.50
2006,12,15,09,54,4.80
2006,12,15,09,55,4.80
2006,12,15,09,56,12.90
2006,12,15,09,57,11.30
2006,12,15,09,58,9.60
2006,12,15,09,59,11.30
2006,12,15,10,00,8.10
2006,12,15,10,01,22.50
2006,12,15,10,02,14.50
2006,12,15,10,03,11.30
2006,12,15,10,04,14.50
2006,12,15,10,05,8.10
2006,12,15,10,06,11.30
2006,12,15,10,07,16.10
2006,12,15,10,08,8.10
2006,12,15,10,09,8.10
2006,12,15,10,10,22.50
2006,12,15,10,11,24.20
2006,12,15,10,12,17.70
2006,12,15,10,13,16.10
2006,12,15,10,14,14.50
2006,12,15,10,15,8.10
2006,12,15,10,16,9.60
2006,12,15,10,17,19.30
2006,12,15,10,18,20.90
2006,12,15,10,19,11.30
2006,12,15,10,20,11.30
2006,12,15,10,21,8.10
2006,12,15,10,22,9.60
2006,12,15,10,23,9.60
2006,12,15,10,24,14.50
2006,12,15,10,25,9.60
2006,12,15,10,26,4.80
2006,12,15,10,27,6.40
2006,12,15,10,28,8.10
2006,12,15,10,29,11.30
2006,12,15,10,30,16.10
2006,12,15,10,31,9.60
2006,12,15,10,32,3.20
2006,12,15,10,33,14.50
2006,12,15,10,34,19.30
2006,12,15,10,35,16.10
2006,12,15,10,36,20.90
2006,12,15,10,37,17.70
2006,12,15,10,38,19.30
2006,12,15,10,39,20.90
2006,12,15,10,40,19.30
2006,12,15,10,41,8.10
2006,12,15,10,42,8.10
2006,12,15,10,43,9.60
2006,12,15,10,44,8.10
2006,12,15,10,45,17.70
2006,12,15,10,46,4.80
2006,12,15,10,47,6.40
2006,12,15,10,48,14.50
2006,12,15,10,49,8.10
2006,12,15,10,50,14.50
2006,12,15,10,51,12.90
2006,12,15,10,52,16.10
2006,12,15,10,53,24.20
2006,12,15,10,54,24.20
2006,12,15,10,55,16.10
2006,12,15,10,56,11.30
2006,12,15,10,57,9.60
2006,12,15,10,58,9.60
2006,12,15,10,59,12.90
2006,12,15,11,00,8.10
2006,12,15,11,01,12.90
2006,12,15,11,02,4.80
2006,12,15,11,03,4.80
2006,12,15,11,04,12.90
2006,12,15,11,05,16.10
2006,12,15,11,06,11.30
2006,12,15,11,07,3.20
2006,12,15,11,08,11.30
2006,12,15,11,09,16.10
2006,12,15,11,10,8.10
2006,12,15,11,11,8.10
2006,12,15,11,12,12.90
2006,12,15,11,13,9.60
2006,12,15,11,14,6.40
2006,12,15,11,15,11.30
2006,12,15,11,16,17.70
2006,12,15,11,17,12.90
2006,12,15,11,18,6.40
2006,12,15,11,19,6.40
2006,12,15,11,20,9.60
2006,12,15,11,21,17.70
2006,12,15,11,22,14.50
2006,12,15,11,23,11.30
2006,12,15,11,24,3.20
2006,12,15,11,25,3.20
2006,12,15,11,26,3.20
2006,12,15,11,27,4.80
2006,12,15,11,28,11.30
2006,12,15,11,29,9.60
2006,12,15,11,30,1.60
2006,12,15,11,31,9.60
2006,12,15,11,32,4.80
2006,12,15,11,33,11.30
2006,12,15,11,34,9.60
2006,12,15,11,35,11.30
2006,12,15,11,36,14.50
2006,12,15,11,37,19.30
2006,12,15,11,38,16.10
2006,12,15,11,39,12.90
2006,12,15,11,40,9.60
2006,12,15,11,41,16.10
2006,12,15,11,42,6.40
2006,12,15,11,43,6.40
2006,12,15,11,44,8.10
2006,12,15,11,45,14.50
2006,12,15,11,46,16.10
2006,12,15,11,47,9.60
2006,12,15,11,48,4.80
2006,12,15,11,49,6.40
2006,12,15,11,50,4.80
2006,12,15,11,51,8.10
2006,12,15,11,52,4.80
2006,12,15,11,53,11.30
2006,12,15,11,54,11.30
2006,12,15,11,55,9.60
2006,12,15,11,56,8.10
2006,12,15,11,57,8.10
2006,12,15,11,58,11.30
2006,12,15,11,59,6.40
2006,12,15,12,00,11.30
2006,12,15,12,01,3.20
2006,12,15,12,02,4.80
2006,12,15,12,03,11.30
2006,12,15,12,04,9.60
2006,12,15,12,05,14.50
2006,12,15,12,06,22.50
2006,12,15,12,07,16.10
2006,12,15,12,08,17.70
2006,12,15,12,09,6.40
2006,12,15,12,10,17.70
2006,12,15,12,11,11.30
2006,12,15,12,12,9.60
2006,12,15,12,13,9.60
2006,12,15,12,14,17.70
2006,12,15,12,15,17.70
2006,12,15,12,16,14.50
2006,12,15,12,17,8.10
2006,12,15,12,18,17.70
2006,12,15,12,19,20.90
2006,12,15,12,20,11.30
2006,12,15,12,21,8.10
2006,12,15,12,22,16.10
2006,12,15,12,23,8.10
2006,12,15,12,24,17.70
2006,12,15,12,25,20.90
2006,12,15,12,26,8.10
2006,12,15,12,27,9.60
2006,12,15,12,28,8.10
2006,12,15,12,29,6.40
2006,12,15,12,30,16.10
2006,12,15,12,31,9.60
2006,12,15,12,32,6.40
2006,12,15,12,33,9.60
2006,12,15,12,34,9.60
2006,12,15,12,35,4.80
2006,12,15,12,36,6.40
2006,12,15,12,37,9.60
2006,12,15,12,38,20.90
2006,12,15,12,39,16.10
2006,12,15,12,40,20.90
2006,12,15,12,41,17.70
2006,12,15,12,42,19.30
2006,12,15,12,43,19.30
2006,12,15,12,44,17.70
2006,12,15,12,45,8.10
2006,12,15,12,46,6.40
2006,12,15,12,47,17.70
2006,12,15,12,48,4.80
2006,12,15,12,49,16.10
2006,12,15,12,50,11.30
2006,12,15,12,51,16.10
2006,12,15,12,52,8.10
2006,12,15,12,53,6.40
2006,12,15,12,54,9.60
2006,12,15,12,55,14.50
2006,12,15,12,56,4.80
2006,12,15,12,57,6.40
2006,12,15,12,58,16.10
2006,12,15,12,59,19.30
2006,12,15,13,00,16.10
2006,12,15,13,01,9.60
2006,12,15,13,02,16.10
2006,12,15,13,03,16.10
2006,12,15,13,04,16.10
2006,12,15,13,05,9.60
2006,12,15,13,06,8.10
2006,12,15,13,07,8.10
2006,12,15,13,08,4.80
2006,12,15,13,09,4.80
2006,12,15,13,10,3.20
2006,12,15,13,11,11.30
2006,12,15,13,12,25.70
2006,12,15,13,13,14.50
2006,12,15,13,14,29.00
2006,12,15,13,15,25.70
2006,12,15,13,16,25.70
2006,12,15,13,17,17.70
2006,12,15,13,18,16.10
2006,12,15,13,19,11.30
2006,12,15,13,20,22.50
2006,12,15,13,21,14.50
2006,12,15,13,22,19.30
2006,12,15,13,23,12.90
2006,12,15,13,24,9.60
2006,12,15,13,25,8.10
2006,12,15,13,26,8.10
2006,12,15,13,27,17.70
2006,12,15,13,28,16.10
2006,12,15,13,29,14.50
2006,12,15,13,30,6.40
2006,12,15,13,31,14.50
2006,12,15,13,32,16.10
2006,12,15,13,33,17.70
2006,12,15,13,34,17.70
2006,12,15,13,35,20.90
2006,12,15,13,36,19.30
2006,12,15,13,37,25.70
2006,12,15,13,38,19.30
2006,12,15,13,39,9.60
2006,12,15,13,40,6.40
2006,12,15,13,41,19.30
2006,12,15,13,42,14.50
2006,12,15,13,43,11.30
2006,12,15,13,44,8.10
2006,12,15,13,45,4.80
2006,12,15,13,46,8.10
2006,12,15,13,47,9.60
2006,12,15,13,48,25.70
2006,12,15,13,49,32.20
2006,12,15,13,50,8.10
2006,12,15,13,51,6.40
2006,12,15,13,52,8.10
2006,12,15,13,53,12.90
2006,12,15,13,54,16.10
2006,12,15,13,55,6.40
2006,12,15,13,56,6.40
2006,12,15,13,57,8.10
2006,12,15,13,58,9.60
2006,12,15,13,59,8.10
2006,12,15,14,00,4.80
2006,12,15,14,01,9.60
2006,12,15,14,02,11.30
2006,12,15,14,03,14.50
2006,12,15,14,04,9.60
2006,12,15,14,05,8.10
2006,12,15,14,06,6.40
2006,12,15,14,07,6.40
2006,12,15,14,08,8.10
2006,12,15,14,09,8.10
2006,12,15,14,10,4.80
2006,12,15,14,11,6.40
2006,12,15,14,12,8.10
2006,12,15,14,13,16.10
2006,12,15,14,14,16.10
2006,12,15,14,15,11.30
2006,12,15,14,16,14.50
2006,12,15,14,17,6.40
2006,12,15,14,18,9.60
2006,12,15,14,19,9.60
2006,12,15,14,20,4.80
2006,12,15,14,21,6.40
2006,12,15,14,22,4.80
2006,12,15,14,23,4.80
2006,12,15,14,24,8.10
2006,12,15,14,25,8.10
2006,12,15,14,26,11.30
2006,12,15,14,27,11.30
2006,12,15,14,28,6.40
2006,12,15,14,29,6.40
2006,12,15,14,30,6.40
2006,12,15,14,31,6.40
2006,12,15,14,32,6.40
2006,12,15,14,33,8.10
2006,12,15,14,34,8.10
2006,12,15,14,35,8.10
2006,12,15,14,36,4.80
2006,12,15,14,37,9.60
2006,12,15,14,38,8.10
2006,12,15,14,39,8.10
2006,12,15,14,40,6.40
2006,12,15,14,41,6.40
2006,12,15,14,42,6.40
2006,12,15,14,43,11.30
2006,12,15,14,44,16.10
2006,12,15,14,45,9.60
2006,12,15,14,46,9.60
2006,12,15,14,47,20.90
2006,12,15,14,48,8.10
2006,12,15,14,49,8.10
2006,12,15,14,50,9.60
2006,12,15,14,51,6.40
2006,12,15,14,52,8.10
2006,12,15,14,53,8.10
2006,12,15,14,54,16.10
2006,12,15,14,55,8.10
2006,12,15,14,56,12.90
2006,12,15,14,57,8.10
2006,12,15,14,58,9.60
2006,12,15,14,59,6.40
2006,12,15,15,00,6.40
2006,12,15,15,01,6.40
2006,12,15,15,02,6.40
2006,12,15,15,03,6.40
2006,12,15,15,04,8.10
2006,12,15,15,05,8.10
2006,12,15,15,06,6.40
2006,12,15,15,07,3.20
2006,12,15,15,08,8.10
2006,12,15,15,09,6.40
2006,12,15,15,10,3.20
2006,12,15,15,11,8.10
2006,12,15,15,12,8.10
2006,12,15,15,13,8.10
2006,12,15,15,14,4.80
2006,12,15,15,15,1.60
2006,12,15,15,16,3.20
2006,12,15,15,17,3.20
2006,12,15,15,18,3.20
2006,12,15,15,19,3.20
2006,12,15,15,20,8.10
2006,12,15,15,21,9.60
2006,12,15,15,22,3.20
2006,12,15,15,23,3.20
2006,12,15,15,24,4.80
2006,12,15,15,25,3.20
2006,12,15,15,26,3.20
2006,12,15,15,27,1.60
2006,12,15,15,28,4.80
2006,12,15,15,29,4.80
2006,12,15,15,30,4.80
2006,12,15,15,31,6.40
2006,12,15,15,32,9.60
2006,12,15,15,33,4.80
2006,12,15,15,34,3.20
2006,12,15,15,35,4.80
2006,12,15,15,36,6.40
2006,12,15,15,37,9.60
2006,12,15,15,38,6.40
2006,12,15,15,39,4.80
2006,12,15,15,40,6.40
2006,12,15,15,41,8.10
2006,12,15,15,42,4.80
2006,12,15,15,43,9.60
2006,12,15,15,44,6.40
2006,12,15,15,45,6.40
2006,12,15,15,46,3.20
2006,12,15,15,47,3.20
2006,12,15,15,48,4.80
2006,12,15,15,49,6.40
2006,12,15,15,50,4.80
2006,12,15,15,51,4.80
2006,12,15,15,52,3.20
2006,12,15,15,53,6.40
2006,12,15,15,54,8.10
2006,12,15,15,55,9.60
2006,12,15,15,56,6.40
2006,12,15,15,57,3.20
2006,12,15,15,58,3.20
2006,12,15,15,59,6.40
2006,12,15,16,00,4.80
2006,12,15,16,01,4.80
2006,12,15,16,02,8.10
2006,12,15,16,03,6.40
2006,12,15,16,04,6.40
2006,12,15,16,05,8.10
2006,12,15,16,06,3.20
2006,12,15,16,07,6.40
2006,12,15,16,08,6.40
2006,12,15,16,09,9.60
2006,12,15,16,10,8.10
2006,12,15,16,11,9.60
2006,12,15,16,12,8.10
2006,12,15,16,13,12.90
2006,12,15,16,14,17.70
2006,12,15,16,15,17.70
2006,12,15,16,16,11.30
2006,12,15,16,17,11.30
2006,12,15,16,18,11.30
2006,12,15,16,19,8.10
2006,12,15,16,20,14.50
2006,12,15,16,21,4.80
2006,12,15,16,22,9.60
2006,12,15,16,23,8.10
2006,12,15,16,24,6.40
2006,12,15,16,25,6.40
2006,12,15,16,26,4.80
2006,12,15,16,27,6.40
2006,12,15,16,28,4.80
2006,12,15,16,29,11.30
2006,12,15,16,30,14.50
2006,12,15,16,31,9.60
2006,12,15,16,32,6.40
2006,12,15,16,33,12.90
2006,12,15,16,34,8.10
2006,12,15,16,35,9.60
2006,12,15,16,36,8.10
2006,12,15,16,37,11.30
2006,12,15,16,38,8.10
2006,12,15,16,39,6.40
2006,12,15,16,40,8.10
2006,12,15,16,41,11.30
2006,12,15,16,42,9.60
2006,12,15,16,43,9.60
2006,12,15,16,44,9.60
2006,12,15,16,45,8.10
2006,12,15,16,46,9.60
2006,12,15,16,47,4.80
2006,12,15,16,48,9.60
2006,12,15,16,49,4.80
2006,12,15,16,50,6.40
2006,12,15,16,51,8.10
2006,12,15,16,52,6.40
2006,12,15,16,53,8.10
2006,12,15,16,54,4.80
2006,12,15,16,55,6.40
2006,12,15,16,56,6.40
2006,12,15,16,57,8.10
2006,12,15,16,58,8.10
2006,12,15,16,59,9.60
2006,12,15,17,00,4.80
2006,12,15,17,01,4.80
2006,12,15,17,02,4.80
2006,12,15,17,03,4.80
2006,12,15,17,04,4.80
2006,12,15,17,05,8.10
2006,12,15,17,06,6.40
2006,12,15,17,07,6.40
2006,12,15,17,08,6.40
2006,12,15,17,09,6.40
2006,12,15,17,10,6.40
2006,12,15,17,11,8.10
2006,12,15,17,12,8.10
2006,12,15,17,13,6.40
2006,12,15,17,14,6.40
2006,12,15,17,15,8.10
2006,12,15,17,16,6.40
2006,12,15,17,17,8.10
2006,12,15,17,18,8.10
2006,12,15,17,19,6.40
2006,12,15,17,20,6.40
2006,12,15,17,21,9.60
2006,12,15,17,22,9.60
2006,12,15,17,23,8.10
2006,12,15,17,24,8.10
2006,12,15,17,25,8.10
2006,12,15,17,26,8.10
2006,12,15,17,27,8.10
2006,12,15,17,28,11.30
2006,12,15,17,29,8.10
2006,12,15,17,30,8.10
2006,12,15,17,31,8.10
2006,12,15,17,32,9.60
2006,12,15,17,33,8.10
2006,12,15,17,34,14.50
2006,12,15,17,35,9.60
2006,12,15,17,36,9.60
2006,12,15,17,37,11.30